Regional Weather Roundup
Issued by NWS

Home | Current Version | Previous Version | Text Only | Print | Product List | Glossary On
Versions: 1 2 3 4 5 6 7 8 9 10 11 12 13 14 15 16 17 18 19 20 21 22 23 24 25 26 27 28 29 30 31 32 33 34 35 36 37 38 39 40 41 42 43 44 45 46 47 48 49 50
000
ASUS44 KMEG 092210
RWRTN
TENNESSEE HOURLY STATE WEATHER ROUNDUP
NATIONAL WEATHER SERVICE MEMPHIS TN
400 PM CST FRI DEC 09 2016

TNZ002-004-019-021-049-052-054-088>092-092300-
WEST TENNESSEE

CITY           SKY/WX    TMP DP  RH WIND       PRES   REMARKS
MEMPHIS INTL   PTCLDY    36  18  48 N8        30.57S WCI  30
NWS MEMPHIS      N/A     38 N/A N/A MISG        N/A
JACKSON        CLEAR     35  19  52 NW7       30.57S WCI  29
DYERSBURG      CLEAR     34  16  47 N7        30.58S WCI  28
UNION CITY     CLEAR     30  16  55 CALM      30.57S
PARIS          CLEAR     28  14  54 CALM      30.56S
HUNTINGDON     CLEAR     34  18  51 VRB5      30.55F WCI  30
LEXINGTON      CLEAR     34  14  44 VRB3      30.54F
$$

TNZ008-025-027-028-033-062-065-066-092300-
NORTH MIDDLE TENNESSEE

CITY           SKY/WX    TMP DP  RH WIND       PRES   REMARKS
NASHVILLE      CLEAR     35  14  42 N10       30.55S WCI  27
PORTLAND       CLEAR     32  18  55 NW6       30.54S WCI  26
CLARKSVILLE    CLEAR     32  16  51 N10       30.57S WCI  24
SMYRNA         CLEAR     35  17  47 N9        30.56R WCI  28
GALLATIN       CLEAR     34  16  47 N7        30.58S WCI  28
CROSSVILLE     CLEAR     29  14  53 NW6       30.45S WCI  23
$$

TNZ061-075-076-078-094-096-097-092300-
SOUTH MIDDLE TENNESSEE

CITY           SKY/WX    TMP DP  RH WIND       PRES   REMARKS
FAYETTEVILLE   CLEAR     34  18  51 N7        30.50F WCI  28
TULLAHOMA      CLEAR     30  12  47 N6        30.50S WCI  24
WINCHESTER     CLEAR     34  18  51 N6        30.50S WCI  29
MCMINNVILLE    CLEAR     32  14  47 N5          N/A  WCI  27
COLUMBIA       CLEAR     34  16  47 N5        30.51F WCI  30
SHELBYVILLE    CLEAR     36  18  48 N6        30.54R WCI  31
$$

TNZ017-018-042-046-047-092300-
NORTHEAST TENNESSEE

CITY           SKY/WX    TMP DP  RH WIND       PRES   REMARKS
TRI CITIES     PTCLDY    30  13  49 W7        30.45R WCI  23
ELIZABETHTON   PTCLDY    30  14  51 W5        30.44S WCI  25
$$

TNZ012-013-036-069-073-074-092300-
CENTRAL EAST TENNESSEE

CITY           SKY/WX    TMP DP  RH WIND       PRES   REMARKS
KNOXVILLE      CLEAR     34  14  43 N5        30.48S WCI  30
OAK RIDGE      CLEAR     35  14  42 CALM      30.50R
DOWNTOWN KNOXV CLEAR     34  16  47 CALM      30.50S
GATLINBURG     CLEAR     30  12  47 NW5       30.48R WCI  25
MORRISTOWN     CLEAR     30  14  51 N6        30.46R WCI  24
JACKSBORO      CLEAR     32  12  43 VRB3      30.51R
$$

TNZ083-085-099-092300-
SOUTHEAST TENNESSEE

CITY           SKY/WX    TMP DP  RH WIND       PRES   REMARKS
CHATTANOOGA    PTCLDY    39  15  37 NE9       30.49S WCI  33
$$

SKY/WX REPORTED AS FAIR MEANS FEW OR NO CLOUDS BELOW
12 THOUSAND FEET.




USA.gov is the U.S. government's official web portal to all federal, state and local government web resources and services.